Z-SAT (49399 NORAD) Tracking and Keplerian Element Data

This shows tracking and keplerian element data for the satellite.

Feedback or suggestion? Click here.




ElementValue
Catalog49399
NameZ-SAT
Epoch Orbit1023
Epoch Day16.23284124
Epoch Year2022
RAAN79.0674
Inclination97.5632
Eccentricity0.0021844
Argument of Perigee32.8383
Mean Anonmoly327.4195
Mean Motion15.02050127
Decay Rate1.1E-05
L11 49399U 21102E 22016.23284124 .00001100 00000+0 87978-4 0 9991
L22 49399 97.5632 79.0674 0021844 32.8383 327.4195 15.02050127 10237

Live tracking and technical data element details for Z-SAT (NORAD 49399). Z-SAT can be tracked NOW for your location showing map with azimuth and elevation plus other details from your city location.

Track the satellite on the map from your city or location and see movement details for azimuth, elevation, latitude, longitude, range, height, and movement on the map or in text.







IsCatalogInMostPopularTable: catalog: 49399, numindb: 7
Update: records affected: 1



GetName: 49399 Z-SAT

Hit Count: updated at: Thu, 20 Jan 2022 17:44:57 GMT